Worland, WY

1:54 PM MST on February 20, 2017 (GMT -0700)
Worland Municipal

Weather History for KWRL - February, 2012

Change the Weather History Date:

Friday, February 24, 2012

  Actual Average Record
Temperature  
Mean Temperature 28 °F 27 °F  
Max Temperature 40 °F 41 °F 68 °F (1981)
Min Temperature 15 °F 14 °F -30 °F (2003)
Degree Days  
Heating Degree Days 37 38  
Month to date heating degree days 926 973  
Since 1 July heating degree days 5128 5821  
Cooling Degree Days 0 0  
Month to date cooling degree days 0 0  
Year to date cooling degree days 0 0  
Moisture  
Dew Point 16 °F    
Average Humidity 61    
Maximum Humidity 92    
Minimum Humidity 29    
Precipitation  
Precipitation T in 0.01 in 0.03 in (1989)
Month to date precipitation T 0.15  
Year to date precipitation 0.03 0.38  
Sea Level Pressure  
Sea Level Pressure 30.18 in    
Wind  
Wind Speed 8 mph (SSE)    
Max Wind Speed 14 mph    
Max Gust Speed -    
Visibility 9 miles    
Events Snow    
T = Trace of Precipitation, MM = Missing Value Source: NWS Daily Summary

Daily Weather History Graph

Daily Weather History Graph

Search for Another Location

Airport or City:

Trip Planner

Search our weather history database for the weather conditions in past years. The results will help you decide how hot, cold, wet, or windy it might be!

Date:

Astronomy

Feb. 24, 2012 Rise Set
Actual Time 6:57 AM MST 5:53 PM MST
Civil Twilight 6:28 AM MST 6:22 PM MST
Nautical Twilight 5:55 AM MST 6:55 PM MST
Astronomical Twilight 5:21 AM MST 7:29 PM MST
Moon 7:45 AM MST (2/24) 9:08 PM MST (2/24)
Length of Visible Light 11h 53m
Length of Day
10h 55m
Waxing Crescent, 8% of the Moon is Illuminated
Feb 24
Waxing Crescent
Feb 29
First Quarter
Mar 8
Full
Mar 14
Last Quarter
Mar 22
New

Hourly Weather History & Observations

Time (MST) Temp. Windchill Dew Point Humidity Pressure Visibility Wind Dir Wind Speed Gust Speed Precip Events Conditions
12:53 AM 25.0 °F 20.7 °F 24.1 °F 96% 30.17 in 1.8 mi East 3.5 mph - 0.00 in Snow Light Snow
1:02 AM 26.6 °F - 24.8 °F 93% 30.06 in 1.8 mi Calm Calm - 0.00 in Snow Light Snow
1:08 AM 26.6 °F - 23.0 °F 86% 30.06 in 3.0 mi Calm Calm - 0.00 in Snow Light Snow
1:20 AM 24.8 °F - 23.0 °F 93% 30.06 in 6.0 mi Calm Calm - 0.00 in Snow Light Snow
1:53 AM 24.1 °F 19.7 °F 21.9 °F 91% 30.17 in 9.0 mi SE 3.5 mph - 0.00 in   Overcast
2:20 AM 23.0 °F 14.7 °F 21.2 °F 93% 30.06 in 9.0 mi SSE 6.9 mph - 0.00 in Snow Light Snow
2:27 AM 23.0 °F 14.7 °F 21.2 °F 93% 30.06 in 9.0 mi SSE 6.9 mph - 0.00 in Snow Light Snow
2:53 AM 19.9 °F 9.3 °F 18.0 °F 92% 30.17 in 10.0 mi South 9.2 mph - 0.00 in   Clear
3:53 AM 19.9 °F 12.1 °F 17.1 °F 89% 30.20 in 10.0 mi South 5.8 mph - N/A   Mostly Cloudy
4:53 AM 18.0 °F 8.7 °F 15.1 °F 88% 30.23 in 10.0 mi SSE 6.9 mph - N/A   Clear
5:53 AM 17.1 °F 6.6 °F 12.9 °F 84% 30.26 in 10.0 mi South 8.1 mph - N/A   Clear
6:53 AM 17.1 °F 8.7 °F 12.9 °F 84% 30.28 in 10.0 mi South 5.8 mph - N/A   Clear
7:53 AM 16.0 °F 5.3 °F 12.9 °F 88% 30.30 in 10.0 mi South 8.1 mph - N/A   Clear
8:53 AM 23.0 °F 18.4 °F 18.0 °F 81% 30.30 in 10.0 mi SSE 3.5 mph - N/A   Clear
9:53 AM 28.0 °F 21.7 °F 17.1 °F 63% 30.30 in 10.0 mi SSW 5.8 mph - N/A   Clear
10:53 AM 32.0 °F 28.7 °F 14.0 °F 48% 30.29 in 10.0 mi SSW 3.5 mph - N/A   Clear
11:53 AM 35.1 °F - 10.0 °F 35% 30.27 in 10.0 mi Calm Calm - N/A   Clear
12:53 PM 37.0 °F 32.4 °F 9.0 °F 31% 30.23 in 10.0 mi Variable 5.8 mph - N/A   Clear
1:53 PM 37.9 °F - 9.0 °F 30% 30.20 in 10.0 mi Calm Calm - N/A   Clear
2:53 PM 39.0 °F 33.4 °F 12.0 °F 33% 30.20 in 10.0 mi ENE 8.1 mph - N/A   Clear
3:53 PM 37.9 °F 29.6 °F 12.9 °F 36% 30.19 in 10.0 mi East 13.8 mph - N/A   Clear
4:53 PM 36.0 °F 27.1 °F 14.0 °F 41% 30.17 in 10.0 mi ESE 13.8 mph - N/A   Clear
5:53 PM 32.0 °F 22.5 °F 15.1 °F 50% 30.18 in 10.0 mi ESE 12.7 mph - N/A   Clear
6:53 PM 30.0 °F 20.5 °F 15.1 °F 54% 30.18 in 10.0 mi SE 11.5 mph - N/A   Clear
7:53 PM 27.0 °F 16.1 °F 17.1 °F 66% 30.18 in 10.0 mi SE 12.7 mph - N/A   Clear
8:53 PM 28.0 °F 17.0 °F 16.0 °F 61% 30.14 in 10.0 mi SE 13.8 mph - N/A   Clear
9:53 PM 26.1 °F 15.6 °F 16.0 °F 66% 30.12 in 10.0 mi ESE 11.5 mph - N/A   Clear
10:53 PM 25.0 °F 15.5 °F 16.0 °F 69% 30.07 in 10.0 mi SE 9.2 mph - N/A   Clear
11:53 PM 25.0 °F - 15.1 °F 66% 30.02 in 10.0 mi Calm Calm - N/A   Clear